Location: Berlin
(52.5171°N, 13.3759°E)
Time: 16:43:35
(UTC+01:00)

ISS - Pass Details

Date: 10 February 2018
Orbit: 403 x 407 km, 51.6° (Epoch: 21 February)

Event Time Altitude Azimuth Distance (km) Brightness Sun altitude
Rises 18:40:13 0° 280° (W) 2,322 1.6 -14.2°
Reaches altitude 10° 18:42:36 10° 264° (W) 1,460 0.4 -14.5°
Maximum altitude 18:45:10 21° 213° (SSW) 959 -1.5 -14.9°
Drops below altitude 10° 18:47:43 10° 161° (SSE) 1,455 -1.2 -15.3°
Enters shadow 18:48:14 - 156° (SSE) 1,629 -1.0 -15.4°
